Regional Weather Roundup
Issued by NWS Boston, MA

Current Version | Previous Version | Text Only | Print | Product List | Glossary Off
Versions: 1 2 3 4 5 6 7 8 9 10 11 12 13 14 15 16 17 18 19 20 21 22 23 24 25 26 27 28 29 30 31 32 33 34 35 36 37 38 39 40 41 42 43 44 45 46 47 48 49 50
058 ASUS41 KBOX 240710 RWRBOX REGIONAL WEATHER ROUNDUP NATIONAL WEATHER SERVICE TAUNTON MA 200 AM EST WED JAN 24 2018 NOTE: "FAIR" INDICATES FEW OR NO CLOUDS BELOW 12,000 FEET WITH NO SIGNIFICANT WEATHER AND/OR OBSTRUCTIONS TO VISIBILITY. MAZALL-240800- EASTERN MASSACHUSETTS CITY SKY/WX TMP DP RH WIND PRES REMARKS BOSTON FAIR 37 33 85 SW8 29.62R WCI 31 BEVERLY FAIR 37 33 85 W7 29.59R WCI 32 LAWRENCE FAIR 38 33 82 S6 29.60R BEDFORD FAIR 36 32 85 SW8 29.59R WCI 30 BLUE HILL N/A 37 33 85 W12 29.59R WCI 29 NORWOOD LGT RAIN 39 35 86 SW5 29.62R MARSHFIELD FAIR 39 36 87 W3 29.62S PLYMOUTH FAIR 40 34 79 W7 29.63R TAUNTON FAIR 41 33 73 W6 29.63R NEW BEDFORD FAIR 40 40 100 W5 29.64R $$ MAZALL-240800- CAPE COD AND THE ISLANDS CITY SKY/WX TMP DP RH WIND PRES REMARKS FALMOUTH FAIR 36 36 100 SW5 29.66 FOG WCI 32 HYANNIS FAIR 41 39 93 W6 29.64R CHATHAM FAIR 40 39 97 VRB5 29.65R PROVINCETOWN FAIR 39 35 86 W10 29.64R NANTUCKET FAIR 39 38 96 W14 29.66R WCI 31 MARTHAS VNYRD CLOUDY N/A N/A N/A W9 29.66R $$ MAZALL-240800- CENTRAL AND WESTERN MASSACHUSETTS CITY SKY/WX TMP DP RH WIND PRES REMARKS WORCESTER FAIR 35 29 78 W15 29.58R WCI 25 FITCHBURG FAIR 40 33 76 VRB6 29.59R ORANGE CLOUDY 31 31 100 CALM 29.61S SPRINGFIELD FAIR 31 30 96 S6 29.62S WCI 26 WESTFIELD FAIR 34 33 96 CALM 29.62S NORTH ADAMS CLOUDY 40 29 64 W20G32 29.62R WCI 30 PITTSFIELD MOCLDY 38 28 67 W16G23 29.60 WCI 29 $$ RIZALL-240800- RHODE ISLAND CITY SKY/WX TMP DP RH WIND PRES REMARKS PROVIDENCE FAIR 39 36 89 S5 29.65R NEWPORT FAIR 41 34 76 VRB3 29.65R BLOCK ISLAND FAIR 39 34 82 W12 29.69R WCI 32 SMITHFIELD FAIR N/A N/A N/A VRB3 29.63R WESTERLY FAIR 39 36 89 SW6 29.68R $$ CTZALL-240800- CONNECTICUT CITY SKY/WX TMP DP RH WIND PRES REMARKS BRADLEY INTL FAIR 34 31 88 S8 29.65R WCI 27 HARTFORD FAIR 40 31 70 SW7 29.66S BRIDGEPORT FAIR 39 31 72 SW7 29.71R DANBURY FAIR 41 28 60 W8 29.69R GROTON FAIR 40 31 70 W6 29.67R NEW HAVEN FAIR 37 29 72 S5 29.69S CHESTER FAIR 39 30 70 VRB5 29.67R MERIDEN FAIR 36 29 75 SW6 29.68R WCI 31 WILLIMANTIC FAIR 39 32 76 SW5 29.66R OXFORD FAIR 39 28 64 W10 29.66F $$ MEZ002-015-021-024-NHZ003-005-008-011-012-014-VTZ005-008-240800- NORTHERN NEW ENGLAND CITY SKY/WX TMP DP RH WIND PRES REMARKS PORTLAND ME FAIR 35 32 88 CALM 29.51R BANGOR ME FAIR 36 34 92 SW6 29.42R WCI 31 CONCORD NH FAIR 29 26 89 S5 29.55S WCI 24 MANCHESTER NH FAIR 30 29 96 S5 29.55S WCI 25 NASHUA NH FAIR 29 29 100 CALM 29.58R PORTSMOUTH NH CLEAR 34 31 90 W5 29.54S WCI 30 JAFFREY NH MOCLDY 36 33 89 SW6 29.56R WCI 31 KEENE NH CLOUDY 35 35 100 S6 29.59R WCI 30 BURLINGTON VT LGT RAIN 38 29 70 W12G29 29.53R WCI 30 MT. WASHINGTON SNOWSHWR 16 16 100 W64G76 N/A VSB 0 WCI -11 $$ NYZ052-076-240800- EASTERN NEW YORK CITY SKY/WX TMP DP RH WIND PRES REMARKS ALBANY LGT RAIN 40 30 67 W12 29.66R NEW YORK CITY FAIR 45 27 49 SW15 29.74R $$ ANZALL-240800- MARINE OBSERVATIONS STATION/POSITION TIME TEMP WIND PRES VSBY WAVE AIR SEA DIR/SP/G HT/PER (UTC) (F) (DEG/KT/KT) (MB) (MI) (FT/S) BOSTON BUOY 0650 41 40 230/ 12/ 12 1002.2R 3/ 7 BUZZARDS BAY 0600 41 250/ 18/ 19 1003.9R NANTUCKET SOUND 0650 37 36 270/ 10/ 12 1003.9R 1/ 8 MASS BAY-STELLWA 0604 41 39 1000.9R 5/ 8 ISLE OF SHOALS 0600 39 260/ 19/ 21 1000.5R S OF BLOCK IS 0643 41 N/A 10/11 $$ ......................KEY......................... SKY/WX - SKY CONDITION/PRESENT WEATHER TMP - TEMPERATURE IN FAHRENHEIT DWPT - DEWPOINT IN FAHRENHEIT RH - RELATIVE HUMIDITY IN PERCENT WIND - DIRECTION AND SPEED IN MPH PRES - MEAN SEA LEVEL PRESSURE IN INCHES OF HG WCI - WIND CHILL INDEX VSB - VISIBILITY IN MILES HX - HEAT INDEX TC - TEMPERATURE IN CELSIUS VRB - VARIABLE WIND DIRECTION N/A - NOT AVAILABLE

USA.gov is the U.S. government's official web portal to all federal, state and local government web resources and services.